Aeroporto :
LOGIN :

Iscrizione | Disclaimer

   EN    FR    IT 

 










Sommario :    VFR   VFR Marginale   IFR   IFR Intensivo   IFR Molto Intensivo
Visibilità : 
Base nubi : 
>= 8 km
>= 3000ft
5 / 8 km
1000 / 3000 ft
1500m / 5 km
500 / 1000 ft
800 / 1500m
200 / 500 ft
< 800m
< 200 ft
Simboli :   Temporali  Nebbia  Neve Forte  Precipitazioni Forti  Vento > 20 kt
SIGMETs :   Varie  Temporali  Ghiacco  Turbolenza  Onda orograficha  Ceneri Vulcaniche






- Altitudine del aeroporto : 512 ft
- Codice IATA : URO


LFOP - Rouen Vallée de Seine

ULTIMO METAR :
  • 300200Z AUTO 00000KT 4800 BR OVC003 01/01 Q1027

METARs OBSOLETI :
  • 300130Z AUTO VRB03KT 4700 BR OVC003 01/01 Q1027
  • 300100Z AUTO VRB02KT 4700 BR OVC003 01/01 Q1027
  • 300030Z AUTO VRB02KT 5000 BR OVC004 01/01 Q1027
  • 300000Z AUTO VRB03KT 5000 BR OVC003 02/02 Q1027
  • 292330Z AUTO 15004KT 130V190 4400 BR OVC003 02/02 Q1027

TAF TAF LFOP
Valido dal 29 a 18 ore il 30 a 18 ore UTC


291700Z 2918/3018 06007KT 4000 BR OVC003
BECMG 2918/2921 0200 FG VV///
BECMG 2921/2924 FZFG
BECMG 3008/3010 FG
BECMG 3010/3012 0600 OVC002
ATIS : +33 2 35 80 80 34
Met : +33 2 32 86 52 80



MetMap, La meteo Aeronautica in un colpo d'occhio ! - Copyright ORBIFLY Dicembre 2007 - Disclaimer

ORBIFLY MET'MAP TEAM :

Programmazione e sviluppo : Alexandra Zaïnal
Concezione : Baudouin d'Aumeries
Aiuto per la programmazione : Marc-Olivier Méhu
Supporto tecnico e logistico : Manuel Goepfert
Aiuto per la traduzione : Arnaldo La Scala

Contatto : metmap@orbifly.com




FONTI E CREDITI :

   NOAA